�������r�C�����j�^�v���󋵏��
Date,Time,5�C6���@���p�r�C��,����,����(m/s)
2022/09/19,00:00,3.6,��,9.3
2022/09/19,00:10,3.8,��,9.4
2022/09/19,00:20,3.7,��,8.3
2022/09/19,00:30,3.9,��,7.2
2022/09/19,00:40,3.8,��,6.7
2022/09/19,00:50,3.6,��,8.7
2022/09/19,01:00,3.7,��,8.1
2022/09/19,01:10,3.7,��,9.4
2022/09/19,01:20,3.8,��,8.0
2022/09/19,01:30,3.7,��쓌,9.3
2022/09/19,01:40,3.7,��,8.6
2022/09/19,01:50,3.7,��,7.9
2022/09/19,02:00,3.6,��,8.0
2022/09/19,02:10,3.8,��,9.8
2022/09/19,02:20,3.5,��,8.6
2022/09/19,02:30,3.6,��,7.7
2022/09/19,02:40,3.7,��,9.5
2022/09/19,02:50,3.8,��,9.9
2022/09/19,03:00,3.7,��,10.6
2022/09/19,03:10,3.6,��,11.0
2022/09/19,03:20,3.7,��,8.8
2022/09/19,03:30,3.6,��,10.3
2022/09/19,03:40,3.7,��,10.8
2022/09/19,03:50,3.7,��,12.7
2022/09/19,04:00,3.6,��,11.1
2022/09/19,04:10,3.8,��,10.2
2022/09/19,04:20,3.7,��,11.4
2022/09/19,04:30,3.7,��,10.7
2022/09/19,04:40,3.8,��,9.4
2022/09/19,04:50,3.7,��,8.2
2022/09/19,05:00,3.7,��,11.1
2022/09/19,05:10,3.6,��,8.5
2022/09/19,05:20,3.7,��,7.0
2022/09/19,05:30,3.6,��,8.1
2022/09/19,05:40,3.7,��,9.4
2022/09/19,05:50,3.7,��,7.7
2022/09/19,06:00,3.6,��,7.3
2022/09/19,06:10,3.7,��,8.3
2022/09/19,06:20,3.7,��,10.7
2022/09/19,06:30,3.6,��,10.2
2022/09/19,06:40,3.6,��,8.4
2022/09/19,06:50,3.6,��,10.2
2022/09/19,07:00,3.9,��,11.3
2022/09/19,07:10,3.7,��쓌,12.0
2022/09/19,07:20,3.8,��,11.7
2022/09/19,07:30,3.7,��,9.2
2022/09/19,07:40,3.7,��,9.7
2022/09/19,07:50,3.6,��,9.8
2022/09/19,08:00,3.6,��,8.6
2022/09/19,08:10,3.7,��,9.5
2022/09/19,08:20,3.6,��,9.4
2022/09/19,08:30,3.6,��,8.3
2022/09/19,08:40,3.6,��,9.6
2022/09/19,08:50,3.8,��,8.9
2022/09/19,09:00,3.6,��,9.5
2022/09/19,09:10,3.5,��,9.7
2022/09/19,09:20,3.8,��,8.5
2022/09/19,09:30,3.7,��,8.4
2022/09/19,09:40,3.8,��,8.9
2022/09/19,09:50,3.7,��,10.7
2022/09/19,10:00,3.7,��,9.2
2022/09/19,10:10,3.7,��,9.9
2022/09/19,10:20,3.7,��,10.3
2022/09/19,10:30,3.6,��,9.1
2022/09/19,10:40,3.5,��,9.8
2022/09/19,10:50,3.7,��쓌,10.2
2022/09/19,11:00,3.5,��,12.1
2022/09/19,11:10,3.7,��,10.3
2022/09/19,11:20,3.8,��쓌,10.8
2022/09/19,11:30,3.8,��쓌,10.0
2022/09/19,11:40,3.5,��쓌,11.9
2022/09/19,11:50,3.8,��쓌,11.7
2022/09/19,12:00,3.5,��쓌,9.7
2022/09/19,12:10,3.7,��쓌,12.5
2022/09/19,12:20,3.8,��쓌,13.8
2022/09/19,12:30,3.8,��,12.1
2022/09/19,12:40,3.6,��쓌,10.6
2022/09/19,12:50,3.7,��쓌,13.0
2022/09/19,13:00,3.6,��,12.2
2022/09/19,13:10,3.7,��,12.4
2022/09/19,13:20,3.7,��,11.1
2022/09/19,13:30,3.7,��쓌,11.0
2022/09/19,13:40,3.7,��,11.4
2022/09/19,13:50,3.7,��쓌,10.6
2022/09/19,14:00,3.7,��,13.5
2022/09/19,14:10,3.6,��쓌,14.6
2022/09/19,14:20,3.7,��,12.2
2022/09/19,14:30,3.7,��,15.2
2022/09/19,14:40,3.7,��,12.5
2022/09/19,14:50,3.6,��,14.4
2022/09/19,15:00,3.7,��,10.5
2022/09/19,15:10,3.6,��,9.7
2022/09/19,15:20,3.6,��,13.0
2022/09/19,15:30,3.7,��,15.2
2022/09/19,15:40,3.7,��,12.2
2022/09/19,15:50,3.7,��,11.8
2022/09/19,16:00,3.8,��,10.3
2022/09/19,16:10,3.6,��,12.2
2022/09/19,16:20,3.7,��,11.4
2022/09/19,16:30,3.7,��,11.3
2022/09/19,16:40,3.7,��쐼,10.5
2022/09/19,16:50,3.7,��,11.7
2022/09/19,17:00,3.6,��,12.1
2022/09/19,17:10,3.8,��,12.4
2022/09/19,17:20,3.7,��,10.5
2022/09/19,17:30,3.8,��,8.6
2022/09/19,17:40,3.7,��쓌,12.1
2022/09/19,17:50,3.7,��,14.2
2022/09/19,18:00,3.6,��,13.9
2022/09/19,18:10,3.7,��,13.9
2022/09/19,18:20,3.7,��,13.1
2022/09/19,18:30,3.7,��,12.5
2022/09/19,18:40,3.5,��,14.4
2022/09/19,18:50,3.8,��,11.0
2022/09/19,19:00,3.6,��,13.5
2022/09/19,19:10,3.6,��,11.0
2022/09/19,19:20,3.7,��,9.8
2022/09/19,19:30,3.7,��,11.6
2022/09/19,19:40,3.7,��,10.8
2022/09/19,19:50,3.6,��,11.6
2022/09/19,20:00,3.6,��,12.2
2022/09/19,20:10,3.7,��,12.1
2022/09/19,20:20,3.6,��,12.4
2022/09/19,20:30,3.7,��,13.0
2022/09/19,20:40,3.6,��,12.5
2022/09/19,20:50,3.5,��,14.6
2022/09/19,21:00,3.7,��,12.5
2022/09/19,21:10,3.9,��,16.1
2022/09/19,21:20,3.7,��,14.6
2022/09/19,21:30,3.6,��,13.1
2022/09/19,21:40,3.7,��,14.9
2022/09/19,21:50,3.7,��,12.5
2022/09/19,22:00,3.7,��,11.3
2022/09/19,22:10,3.7,��,12.8
2022/09/19,22:20,3.8,��,11.7
2022/09/19,22:30,3.6,��,12.8
2022/09/19,22:40,3.7,��,13.6
2022/09/19,22:50,3.6,��,11.4
2022/09/19,23:00,3.6,��,11.3
2022/09/19,23:10,3.8,��,12.2
2022/09/19,23:20,3.5,��,9.8
2022/09/19,23:30,3.7,��,13.8
2022/09/19,23:40,3.8,��,10.9
2022/09/19,23:50,3.8,��,10.5
